Year,Month,Day,Hour,Minute,Value (Times are PST for temperature in C)
2009,07,29,00,00,24.10
2009,07,29,00,01,24.00
2009,07,29,00,02,23.90
2009,07,29,00,03,23.90
2009,07,29,00,04,23.90
2009,07,29,00,05,23.80
2009,07,29,00,06,23.80
2009,07,29,00,07,23.70
2009,07,29,00,08,23.70
2009,07,29,00,09,23.70
2009,07,29,00,10,23.70
2009,07,29,00,11,23.70
2009,07,29,00,12,23.70
2009,07,29,00,13,23.60
2009,07,29,00,14,23.60
2009,07,29,00,15,23.60
2009,07,29,00,16,23.60
2009,07,29,00,17,23.60
2009,07,29,00,18,23.40
2009,07,29,00,19,23.40
2009,07,29,00,20,23.40
2009,07,29,00,21,23.40
2009,07,29,00,22,23.40
2009,07,29,00,23,23.40
2009,07,29,00,24,23.40
2009,07,29,00,25,23.40
2009,07,29,00,26,23.30
2009,07,29,00,27,23.30
2009,07,29,00,28,23.30
2009,07,29,00,29,23.30
2009,07,29,00,30,23.30
2009,07,29,00,31,23.30
2009,07,29,00,32,23.20
2009,07,29,00,33,23.20
2009,07,29,00,34,23.20
2009,07,29,00,35,23.20
2009,07,29,00,36,23.20
2009,07,29,00,37,23.20
2009,07,29,00,38,23.20
2009,07,29,00,39,23.20
2009,07,29,00,40,23.10
2009,07,29,00,41,23.10
2009,07,29,00,42,23.10
2009,07,29,00,43,23.10
2009,07,29,00,44,23.00
2009,07,29,00,45,22.90
2009,07,29,00,46,22.90
2009,07,29,00,47,22.90
2009,07,29,00,48,22.90
2009,07,29,00,49,22.90
2009,07,29,00,50,22.90
2009,07,29,00,51,22.90
2009,07,29,00,52,22.90
2009,07,29,00,53,22.90
2009,07,29,00,54,22.90
2009,07,29,00,55,22.90
2009,07,29,00,56,22.90
2009,07,29,00,57,22.90
2009,07,29,00,58,22.90
2009,07,29,00,59,22.90
2009,07,29,01,00,22.90
2009,07,29,01,01,22.90
2009,07,29,01,02,22.90
2009,07,29,01,03,22.80
2009,07,29,01,04,22.80
2009,07,29,01,05,22.80
2009,07,29,01,06,22.80
2009,07,29,01,07,22.80
2009,07,29,01,08,22.80
2009,07,29,01,09,22.80
2009,07,29,01,10,22.80
2009,07,29,01,11,22.80
2009,07,29,01,12,22.80
2009,07,29,01,13,22.80
2009,07,29,01,14,22.80
2009,07,29,01,15,22.70
2009,07,29,01,16,22.70
2009,07,29,01,17,22.70
2009,07,29,01,18,22.70
2009,07,29,01,19,22.60
2009,07,29,01,20,22.60
2009,07,29,01,21,22.60
2009,07,29,01,22,22.60
2009,07,29,01,23,22.50
2009,07,29,01,24,22.50
2009,07,29,01,25,22.50
2009,07,29,01,26,22.50
2009,07,29,01,27,22.40
2009,07,29,01,28,22.40
2009,07,29,01,29,22.40
2009,07,29,01,30,22.40
2009,07,29,01,31,22.40
2009,07,29,01,32,22.30
2009,07,29,01,33,22.30
2009,07,29,01,34,22.30
2009,07,29,01,35,22.30
2009,07,29,01,36,22.20
2009,07,29,01,37,22.20
2009,07,29,01,38,22.20
2009,07,29,01,39,22.20
2009,07,29,01,40,22.20
2009,07,29,01,41,22.20
2009,07,29,01,42,22.20
2009,07,29,01,43,22.10
2009,07,29,01,44,22.10
2009,07,29,01,45,22.10
2009,07,29,01,46,22.20
2009,07,29,01,47,22.20
2009,07,29,01,48,22.20
2009,07,29,01,49,22.20
2009,07,29,01,50,22.20
2009,07,29,01,51,22.20
2009,07,29,01,52,22.20
2009,07,29,01,53,22.20
2009,07,29,01,54,22.20
2009,07,29,01,55,22.20
2009,07,29,01,56,22.20
2009,07,29,01,57,22.20
2009,07,29,01,58,22.20
2009,07,29,01,59,22.20
2009,07,29,02,00,22.20
2009,07,29,02,01,22.20
2009,07,29,02,02,22.20
2009,07,29,02,03,22.20
2009,07,29,02,04,22.20
2009,07,29,02,05,22.20
2009,07,29,02,06,22.20
2009,07,29,02,07,22.20
2009,07,29,02,08,22.20
2009,07,29,02,09,22.20
2009,07,29,02,10,22.20
2009,07,29,02,11,22.20
2009,07,29,02,12,22.20
2009,07,29,02,13,22.20
2009,07,29,02,14,22.20
2009,07,29,02,15,22.20
2009,07,29,02,16,22.20
2009,07,29,02,17,22.20
2009,07,29,02,18,22.20
2009,07,29,02,19,22.20
2009,07,29,02,20,22.10
2009,07,29,02,21,22.10
2009,07,29,02,22,22.10
2009,07,29,02,23,22.10
2009,07,29,02,24,22.10
2009,07,29,02,25,22.10
2009,07,29,02,26,22.10
2009,07,29,02,27,22.10
2009,07,29,02,28,22.10
2009,07,29,02,29,22.10
2009,07,29,02,30,22.10
2009,07,29,02,31,22.10
2009,07,29,02,32,22.10
2009,07,29,02,33,22.10
2009,07,29,02,34,22.10
2009,07,29,02,35,22.10
2009,07,29,02,36,22.00
2009,07,29,02,37,22.00
2009,07,29,02,38,22.00
2009,07,29,02,39,22.00
2009,07,29,02,40,22.00
2009,07,29,02,41,21.90
2009,07,29,02,42,21.90
2009,07,29,02,43,21.80
2009,07,29,02,44,21.80
2009,07,29,02,45,21.80
2009,07,29,02,46,21.70
2009,07,29,02,47,21.70
2009,07,29,02,48,21.70
2009,07,29,02,49,21.70
2009,07,29,02,50,21.60
2009,07,29,02,51,21.60
2009,07,29,02,52,21.60
2009,07,29,02,53,21.60
2009,07,29,02,54,21.60
2009,07,29,02,55,21.60
2009,07,29,02,56,21.60
2009,07,29,02,57,21.60
2009,07,29,02,58,21.60
2009,07,29,02,59,21.60
2009,07,29,03,00,21.60
2009,07,29,03,01,21.70
2009,07,29,03,02,21.70
2009,07,29,03,03,21.70
2009,07,29,03,04,21.80
2009,07,29,03,05,21.80
2009,07,29,03,06,21.90
2009,07,29,03,07,21.90
2009,07,29,03,08,22.00
2009,07,29,03,09,22.00
2009,07,29,03,10,22.10
2009,07,29,03,11,22.10
2009,07,29,03,12,22.10
2009,07,29,03,13,22.10
2009,07,29,03,14,22.10
2009,07,29,03,15,22.10
2009,07,29,03,16,22.10
2009,07,29,03,17,22.10
2009,07,29,03,18,22.10
2009,07,29,03,19,22.10
2009,07,29,03,20,22.10
2009,07,29,03,21,22.00
2009,07,29,03,22,22.00
2009,07,29,03,23,22.00
2009,07,29,03,24,22.00
2009,07,29,03,25,22.00
2009,07,29,03,26,22.00
2009,07,29,03,27,21.90
2009,07,29,03,28,21.90
2009,07,29,03,29,21.90
2009,07,29,03,30,21.80
2009,07,29,03,31,21.80
2009,07,29,03,32,21.80
2009,07,29,03,33,21.70
2009,07,29,03,34,21.70
2009,07,29,03,35,21.70
2009,07,29,03,36,21.70
2009,07,29,03,37,21.60
2009,07,29,03,38,21.60
2009,07,29,03,39,21.60
2009,07,29,03,40,21.60
2009,07,29,03,41,21.60
2009,07,29,03,42,21.60
2009,07,29,03,43,21.60
2009,07,29,03,44,21.50
2009,07,29,03,45,21.40
2009,07,29,03,46,21.40
2009,07,29,03,47,21.40
2009,07,29,03,48,21.40
2009,07,29,03,49,21.40
2009,07,29,03,50,21.40
2009,07,29,03,51,21.40
2009,07,29,03,52,21.40
2009,07,29,03,53,21.40
2009,07,29,03,54,21.40
2009,07,29,03,55,21.30
2009,07,29,03,56,21.30
2009,07,29,03,57,21.30
2009,07,29,03,58,21.30
2009,07,29,03,59,21.30
2009,07,29,04,00,21.30
2009,07,29,04,01,21.20
2009,07,29,04,02,21.20
2009,07,29,04,03,21.20
2009,07,29,04,04,21.20
2009,07,29,04,05,21.20
2009,07,29,04,06,21.10
2009,07,29,04,07,21.10
2009,07,29,04,08,21.10
2009,07,29,04,09,21.10
2009,07,29,04,10,21.10
2009,07,29,04,11,21.00
2009,07,29,04,12,21.00
2009,07,29,04,13,21.00
2009,07,29,04,14,21.00
2009,07,29,04,15,21.00
2009,07,29,04,16,20.90
2009,07,29,04,17,20.90
2009,07,29,04,18,20.90
2009,07,29,04,19,20.90
2009,07,29,04,20,20.80
2009,07,29,04,21,20.80
2009,07,29,04,22,20.80
2009,07,29,04,23,20.80
2009,07,29,04,24,20.80
2009,07,29,04,25,20.80
2009,07,29,04,26,20.70
2009,07,29,04,27,20.70
2009,07,29,04,28,20.70
2009,07,29,04,29,20.70
2009,07,29,04,30,20.70
2009,07,29,04,31,20.60
2009,07,29,04,32,20.60
2009,07,29,04,33,20.50
2009,07,29,04,34,20.50
2009,07,29,04,35,20.40
2009,07,29,04,36,20.40
2009,07,29,04,37,20.40
2009,07,29,04,38,20.30
2009,07,29,04,39,20.30
2009,07,29,04,40,20.30
2009,07,29,04,41,20.30
2009,07,29,04,42,20.20
2009,07,29,04,43,20.20
2009,07,29,04,44,20.20
2009,07,29,04,45,20.20
2009,07,29,04,46,20.20
2009,07,29,04,47,20.20
2009,07,29,04,48,20.20
2009,07,29,04,49,20.20
2009,07,29,04,50,20.20
2009,07,29,04,51,20.20
2009,07,29,04,52,20.20
2009,07,29,04,53,20.10
2009,07,29,04,54,20.10
2009,07,29,04,55,20.10
2009,07,29,04,56,20.10
2009,07,29,04,57,19.90
2009,07,29,04,58,19.90
2009,07,29,04,59,19.90
2009,07,29,05,00,19.80
2009,07,29,05,01,19.80
2009,07,29,05,02,19.70
2009,07,29,05,03,19.70
2009,07,29,05,04,19.70
2009,07,29,05,05,19.70
2009,07,29,05,06,19.70
2009,07,29,05,07,19.70
2009,07,29,05,08,19.70
2009,07,29,05,09,19.70
2009,07,29,05,10,19.70
2009,07,29,05,11,19.70
2009,07,29,05,12,19.70
2009,07,29,05,13,19.70
2009,07,29,05,14,19.60
2009,07,29,05,15,19.70
2009,07,29,05,16,19.70
2009,07,29,05,17,19.70
2009,07,29,05,18,19.60
2009,07,29,05,19,19.60
2009,07,29,05,20,19.60
2009,07,29,05,21,19.60
2009,07,29,05,22,19.60
2009,07,29,05,23,19.60
2009,07,29,05,24,19.60
2009,07,29,05,25,19.60
2009,07,29,05,26,19.60
2009,07,29,05,27,19.60
2009,07,29,05,28,19.60
2009,07,29,05,29,19.60
2009,07,29,05,30,19.60
2009,07,29,05,31,19.60
2009,07,29,05,32,19.70
2009,07,29,05,33,19.70
2009,07,29,05,34,19.70
2009,07,29,05,35,19.80
2009,07,29,05,36,19.80
2009,07,29,05,37,19.80
2009,07,29,05,38,19.80
2009,07,29,05,39,19.90
2009,07,29,05,40,19.90
2009,07,29,05,41,19.90
2009,07,29,05,42,19.90
2009,07,29,05,43,19.90
2009,07,29,05,44,19.90
2009,07,29,05,45,20.00
2009,07,29,05,46,20.10
2009,07,29,05,47,20.10
2009,07,29,05,48,20.10
2009,07,29,05,49,20.10
2009,07,29,05,50,20.10
2009,07,29,05,51,20.10
2009,07,29,05,52,20.10
2009,07,29,05,53,20.00
2009,07,29,05,54,19.90
2009,07,29,05,55,20.00
2009,07,29,05,56,20.10
2009,07,29,05,57,20.10
2009,07,29,05,58,20.10
2009,07,29,05,59,20.10
2009,07,29,06,00,20.10
2009,07,29,06,01,20.10
2009,07,29,06,02,20.20
2009,07,29,06,03,20.20
2009,07,29,06,04,20.20
2009,07,29,06,05,20.20
2009,07,29,06,06,20.20
2009,07,29,06,07,20.20
2009,07,29,06,08,20.20
2009,07,29,06,09,20.30
2009,07,29,06,10,20.30
2009,07,29,06,11,20.40
2009,07,29,06,12,20.40
2009,07,29,06,13,20.40
2009,07,29,06,14,20.50
2009,07,29,06,15,20.50
2009,07,29,06,16,20.50
2009,07,29,06,17,20.50
2009,07,29,06,18,20.50
2009,07,29,06,19,20.50
2009,07,29,06,20,20.50
2009,07,29,06,21,20.50
2009,07,29,06,22,20.50
2009,07,29,06,23,20.60
2009,07,29,06,24,20.60
2009,07,29,06,25,20.60
2009,07,29,06,26,20.60
2009,07,29,06,27,20.60
2009,07,29,06,28,20.60
2009,07,29,06,29,20.60
2009,07,29,06,30,20.60
2009,07,29,06,31,20.60
2009,07,29,06,32,20.60
2009,07,29,06,33,20.60
2009,07,29,06,34,20.60
2009,07,29,06,35,20.60
2009,07,29,06,36,20.60
2009,07,29,06,37,20.60
2009,07,29,06,38,20.60
2009,07,29,06,39,20.60
2009,07,29,06,40,20.60
2009,07,29,06,41,20.60
2009,07,29,06,42,20.60
2009,07,29,06,43,20.60
2009,07,29,06,44,20.60
2009,07,29,06,45,20.60
2009,07,29,06,46,20.70
2009,07,29,06,47,20.70
2009,07,29,06,48,20.70
2009,07,29,06,49,20.70
2009,07,29,06,50,20.70
2009,07,29,06,51,20.70
2009,07,29,06,52,20.70
2009,07,29,06,53,20.60
2009,07,29,06,54,20.70
2009,07,29,06,55,20.70
2009,07,29,06,56,20.70
2009,07,29,06,57,20.70
2009,07,29,06,58,20.70
2009,07,29,06,59,20.70
2009,07,29,07,00,20.80
2009,07,29,07,01,20.90
2009,07,29,07,02,20.90
2009,07,29,07,03,21.00
2009,07,29,07,04,21.10
2009,07,29,07,05,21.20
2009,07,29,07,06,21.20
2009,07,29,07,07,21.30
2009,07,29,07,08,21.30
2009,07,29,07,09,21.40
2009,07,29,07,10,21.40
2009,07,29,07,11,21.50
2009,07,29,07,12,21.60
2009,07,29,07,13,21.60
2009,07,29,07,14,21.60
2009,07,29,07,15,21.50
2009,07,29,07,16,21.30
2009,07,29,07,17,21.00
2009,07,29,07,18,20.50
2009,07,29,07,19,20.20
2009,07,29,07,20,19.70
2009,07,29,07,21,19.30
2009,07,29,07,22,18.80
2009,07,29,07,23,18.50
2009,07,29,07,24,18.20
2009,07,29,07,25,18.00
2009,07,29,07,26,17.80
2009,07,29,07,27,17.60
2009,07,29,07,28,17.50
2009,07,29,07,29,17.40
2009,07,29,07,30,17.40
2009,07,29,07,31,17.30
2009,07,29,07,32,17.30
2009,07,29,07,33,17.30
2009,07,29,07,34,17.30
2009,07,29,07,35,17.30
2009,07,29,07,36,17.30
2009,07,29,07,37,17.30
2009,07,29,07,38,17.40
2009,07,29,07,39,17.40
2009,07,29,07,40,17.40
2009,07,29,07,41,17.50
2009,07,29,07,42,17.50
2009,07,29,07,43,17.60
2009,07,29,07,44,17.70
2009,07,29,07,45,17.80
2009,07,29,07,46,17.80
2009,07,29,07,47,17.90
2009,07,29,07,48,18.00
2009,07,29,07,49,18.10
2009,07,29,07,50,18.20
2009,07,29,07,51,18.40
2009,07,29,07,52,18.50
2009,07,29,07,53,18.70
2009,07,29,07,54,18.80
2009,07,29,07,55,19.00
2009,07,29,07,56,19.10
2009,07,29,07,57,19.20
2009,07,29,07,58,19.30
2009,07,29,07,59,19.50
2009,07,29,08,00,19.60
2009,07,29,08,01,19.70
2009,07,29,08,02,19.90
2009,07,29,08,03,20.00
2009,07,29,08,04,20.20
2009,07,29,08,05,20.30
2009,07,29,08,06,20.50
2009,07,29,08,07,20.70
2009,07,29,08,08,20.90
2009,07,29,08,09,21.00
2009,07,29,08,10,21.20
2009,07,29,08,11,21.40
2009,07,29,08,12,21.50
2009,07,29,08,13,21.60
2009,07,29,08,14,21.70
2009,07,29,08,15,21.70
2009,07,29,08,16,21.80
2009,07,29,08,17,21.80
2009,07,29,08,18,21.80
2009,07,29,08,19,21.90
2009,07,29,08,20,21.80
2009,07,29,08,21,21.80
2009,07,29,08,22,21.80
2009,07,29,08,23,21.90
2009,07,29,08,24,21.90
2009,07,29,08,25,21.90
2009,07,29,08,26,22.00
2009,07,29,08,27,22.00
2009,07,29,08,28,22.00
2009,07,29,08,29,22.00
2009,07,29,08,30,22.00
2009,07,29,08,31,22.00
2009,07,29,08,32,22.00
2009,07,29,08,33,22.00
2009,07,29,08,34,21.90
2009,07,29,08,35,21.90
2009,07,29,08,36,21.90
2009,07,29,08,37,21.90
2009,07,29,08,38,22.00
2009,07,29,08,39,22.00
2009,07,29,08,40,22.00
2009,07,29,08,41,22.10
2009,07,29,08,42,22.10
2009,07,29,08,43,22.10
2009,07,29,08,44,22.10
2009,07,29,08,45,22.10
2009,07,29,08,46,22.00
2009,07,29,08,47,21.90
2009,07,29,08,48,21.80
2009,07,29,08,49,21.70
2009,07,29,08,50,21.60
2009,07,29,08,51,21.60
2009,07,29,08,52,21.60
2009,07,29,08,53,21.60
2009,07,29,08,54,21.50
2009,07,29,08,55,21.40
2009,07,29,08,56,21.40
2009,07,29,08,57,21.40
2009,07,29,08,58,21.40
2009,07,29,08,59,21.50
2009,07,29,09,00,21.60
2009,07,29,09,01,21.60
2009,07,29,09,02,21.70
2009,07,29,09,03,21.80
2009,07,29,09,04,21.80
2009,07,29,09,05,21.90
2009,07,29,09,06,22.00
2009,07,29,09,07,22.10
2009,07,29,09,08,22.20
2009,07,29,09,09,22.30
2009,07,29,09,10,22.30
2009,07,29,09,11,22.30
2009,07,29,09,12,22.30
2009,07,29,09,13,22.40
2009,07,29,09,14,22.50
2009,07,29,09,15,22.60
2009,07,29,09,16,22.70
2009,07,29,09,17,22.80
2009,07,29,09,18,22.90
2009,07,29,09,19,23.00
2009,07,29,09,20,23.10
2009,07,29,09,21,23.20
2009,07,29,09,22,23.20
2009,07,29,09,23,23.30
2009,07,29,09,24,23.30
2009,07,29,09,25,23.30
2009,07,29,09,26,23.30
2009,07,29,09,27,23.20
2009,07,29,09,28,23.20
2009,07,29,09,29,23.30
2009,07,29,09,30,23.30
2009,07,29,09,31,23.30
2009,07,29,09,32,23.20
2009,07,29,09,33,23.20
2009,07,29,09,34,23.30
2009,07,29,09,35,23.30
2009,07,29,09,36,23.30
2009,07,29,09,37,23.30
2009,07,29,09,38,23.40
2009,07,29,09,39,23.40
2009,07,29,09,40,23.60
2009,07,29,09,41,23.70
2009,07,29,09,42,23.70
2009,07,29,09,43,23.70
2009,07,29,09,44,23.70
2009,07,29,09,45,23.80
2009,07,29,09,46,23.90
2009,07,29,09,47,24.00
2009,07,29,09,48,24.10
2009,07,29,09,49,24.10
2009,07,29,09,50,24.20
2009,07,29,09,51,24.30
2009,07,29,09,52,24.50
2009,07,29,09,53,24.60
2009,07,29,09,54,24.70
2009,07,29,09,55,24.80
2009,07,29,09,56,25.00
2009,07,29,09,57,25.20
2009,07,29,09,58,25.40
2009,07,29,09,59,25.50
2009,07,29,10,00,25.60
2009,07,29,10,01,25.70
2009,07,29,10,02,25.80
2009,07,29,10,03,25.90
2009,07,29,10,04,25.90
2009,07,29,10,05,25.90
2009,07,29,10,06,25.90
2009,07,29,10,07,25.90
2009,07,29,10,08,26.00
2009,07,29,10,09,26.00
2009,07,29,10,10,26.00
2009,07,29,10,11,26.00
2009,07,29,10,12,26.00
2009,07,29,10,13,26.00
2009,07,29,10,14,25.90
2009,07,29,10,15,25.80
2009,07,29,10,16,25.70
2009,07,29,10,17,25.60
2009,07,29,10,18,25.50
2009,07,29,10,19,25.40
2009,07,29,10,20,25.20
2009,07,29,10,21,25.10
2009,07,29,10,22,24.90
2009,07,29,10,23,24.90
2009,07,29,10,24,24.80
2009,07,29,10,25,24.70
2009,07,29,10,26,24.60
2009,07,29,10,27,24.60
2009,07,29,10,28,24.60
2009,07,29,10,29,24.70
2009,07,29,10,30,24.90
2009,07,29,10,31,25.00
2009,07,29,10,32,25.20
2009,07,29,10,33,25.20
2009,07,29,10,34,25.30
2009,07,29,10,35,25.40
2009,07,29,10,36,25.40
2009,07,29,10,37,25.60
2009,07,29,10,38,25.60
2009,07,29,10,39,25.60
2009,07,29,10,40,25.60
2009,07,29,10,41,25.60
2009,07,29,10,42,25.60
2009,07,29,10,43,25.70
2009,07,29,10,44,25.70
2009,07,29,10,45,25.70
2009,07,29,10,46,25.80
2009,07,29,10,47,25.80
2009,07,29,10,48,25.90
2009,07,29,10,49,25.90
2009,07,29,10,50,26.00
2009,07,29,10,51,26.20
2009,07,29,10,52,26.40
2009,07,29,10,53,26.60
2009,07,29,10,54,26.80
2009,07,29,10,55,27.00
2009,07,29,10,56,27.20
2009,07,29,10,57,27.40
2009,07,29,10,58,27.50
2009,07,29,10,59,27.70
2009,07,29,11,00,27.90
2009,07,29,11,01,28.00
2009,07,29,11,02,28.10
2009,07,29,11,03,28.00
2009,07,29,11,04,28.00
2009,07,29,11,05,28.10
2009,07,29,11,06,28.30
2009,07,29,11,07,28.50
2009,07,29,11,08,28.60
2009,07,29,11,09,28.80
2009,07,29,11,10,28.90
2009,07,29,11,11,29.00
2009,07,29,11,12,29.10
2009,07,29,11,13,29.20
2009,07,29,11,14,29.20
2009,07,29,11,15,29.40
2009,07,29,11,16,29.50
2009,07,29,11,17,29.60
2009,07,29,11,18,29.70
2009,07,29,11,19,29.80
2009,07,29,11,20,29.90
2009,07,29,11,21,29.90
2009,07,29,11,22,29.90
2009,07,29,11,23,30.00
2009,07,29,11,24,30.10
2009,07,29,11,25,30.10
2009,07,29,11,26,30.10
2009,07,29,11,27,30.10
2009,07,29,11,28,30.10
2009,07,29,11,29,30.10
2009,07,29,11,30,30.20
2009,07,29,11,31,30.20
2009,07,29,11,32,30.20
2009,07,29,11,33,30.30
2009,07,29,11,34,30.30
2009,07,29,11,35,30.30
2009,07,29,11,36,30.30
2009,07,29,11,37,30.30
2009,07,29,11,38,30.40
2009,07,29,11,39,30.50
2009,07,29,11,40,30.60
2009,07,29,11,41,30.80
2009,07,29,11,42,30.80
2009,07,29,11,43,30.90
2009,07,29,11,44,31.00
2009,07,29,11,45,30.90
2009,07,29,11,46,31.00
2009,07,29,11,47,31.10
2009,07,29,11,48,31.10
2009,07,29,11,49,31.20
2009,07,29,11,50,31.30
2009,07,29,11,51,31.30
2009,07,29,11,52,31.30
2009,07,29,11,53,31.30
2009,07,29,11,54,31.40
2009,07,29,11,55,31.40
2009,07,29,11,56,31.50
2009,07,29,11,57,31.40
2009,07,29,11,58,31.50
2009,07,29,11,59,31.50
2009,07,29,12,00,31.40
2009,07,29,12,01,31.40
2009,07,29,12,02,31.50
2009,07,29,12,03,31.60
2009,07,29,12,04,31.60
2009,07,29,12,05,31.70
2009,07,29,12,06,31.70
2009,07,29,12,07,31.70
2009,07,29,12,08,31.80
2009,07,29,12,09,31.90
2009,07,29,12,10,31.90
2009,07,29,12,11,31.90
2009,07,29,12,12,32.00
2009,07,29,12,13,32.00
2009,07,29,12,14,31.90
2009,07,29,12,15,31.90
2009,07,29,12,16,31.90
2009,07,29,12,17,32.10
2009,07,29,12,18,32.10
2009,07,29,12,19,32.20
2009,07,29,12,20,32.20
2009,07,29,12,21,32.20
2009,07,29,12,22,32.20
2009,07,29,12,23,32.30
2009,07,29,12,24,32.30
2009,07,29,12,25,32.30
2009,07,29,12,26,32.30
2009,07,29,12,27,32.40
2009,07,29,12,28,32.50
2009,07,29,12,29,32.50
2009,07,29,12,30,32.50
2009,07,29,12,31,32.60
2009,07,29,12,32,32.60
2009,07,29,12,33,32.80
2009,07,29,12,34,32.80
2009,07,29,12,35,32.90
2009,07,29,12,36,32.80
2009,07,29,12,37,32.80
2009,07,29,12,38,32.70
2009,07,29,12,39,32.50
2009,07,29,12,40,32.50
2009,07,29,12,41,32.40
2009,07,29,12,42,32.40
2009,07,29,12,43,32.40
2009,07,29,12,44,32.40
2009,07,29,12,45,32.40
2009,07,29,12,46,32.40
2009,07,29,12,47,32.40
2009,07,29,12,48,32.40
2009,07,29,12,49,32.50
2009,07,29,12,50,32.50
2009,07,29,12,51,32.50
2009,07,29,12,52,32.50
2009,07,29,12,53,32.40
2009,07,29,12,54,32.40
2009,07,29,12,55,32.40
2009,07,29,12,56,32.50
2009,07,29,12,57,32.50
2009,07,29,12,58,32.60
2009,07,29,12,59,32.60
2009,07,29,13,00,32.70
2009,07,29,13,01,32.80
2009,07,29,13,02,32.80
2009,07,29,13,03,32.90
2009,07,29,13,04,32.80
2009,07,29,13,05,32.90
2009,07,29,13,06,32.80
2009,07,29,13,07,32.80
2009,07,29,13,08,32.60
2009,07,29,13,09,32.60
2009,07,29,13,10,32.50
2009,07,29,13,11,32.30
2009,07,29,13,12,32.20
2009,07,29,13,13,32.30
2009,07,29,13,14,32.30
2009,07,29,13,15,32.30
2009,07,29,13,16,32.40
2009,07,29,13,17,32.40
2009,07,29,13,18,32.40
2009,07,29,13,19,32.40
2009,07,29,13,20,32.40
2009,07,29,13,21,32.40
2009,07,29,13,22,32.50
2009,07,29,13,23,32.50
2009,07,29,13,24,32.70
2009,07,29,13,25,32.80
2009,07,29,13,26,32.90
2009,07,29,13,27,33.00
2009,07,29,13,28,33.10
2009,07,29,13,29,33.20
2009,07,29,13,30,33.20
2009,07,29,13,31,33.30
2009,07,29,13,32,33.40
2009,07,29,13,33,33.50
2009,07,29,13,34,33.50
2009,07,29,13,35,33.50
2009,07,29,13,36,33.40
2009,07,29,13,37,33.40
2009,07,29,13,38,33.40
2009,07,29,13,39,33.40
2009,07,29,13,40,33.50
2009,07,29,13,41,33.50
2009,07,29,13,42,33.50
2009,07,29,13,43,33.50
2009,07,29,13,44,33.60
2009,07,29,13,45,33.70
2009,07,29,13,46,33.70
2009,07,29,13,47,33.70
2009,07,29,13,48,33.70
2009,07,29,13,49,33.70
2009,07,29,13,50,33.70
2009,07,29,13,51,33.80
2009,07,29,13,52,33.80
2009,07,29,13,53,33.80
2009,07,29,13,54,33.80
2009,07,29,13,55,33.70
2009,07,29,13,56,33.70
2009,07,29,13,57,33.70
2009,07,29,13,58,33.80
2009,07,29,13,59,33.80
2009,07,29,14,00,34.00
2009,07,29,14,01,34.00
2009,07,29,14,02,34.10
2009,07,29,14,03,34.10
2009,07,29,14,04,34.10
2009,07,29,14,05,34.20
2009,07,29,14,06,34.20
2009,07,29,14,07,34.20
2009,07,29,14,08,34.20
2009,07,29,14,09,34.30
2009,07,29,14,10,34.40
2009,07,29,14,11,34.50
2009,07,29,14,12,34.60
2009,07,29,14,13,34.60
2009,07,29,14,14,34.60
2009,07,29,14,15,34.60
2009,07,29,14,16,34.60
2009,07,29,14,17,34.50
2009,07,29,14,18,34.40
2009,07,29,14,19,34.30
2009,07,29,14,20,34.30
2009,07,29,14,21,34.40
2009,07,29,14,22,34.40
2009,07,29,14,23,34.40
2009,07,29,14,24,34.40
2009,07,29,14,25,34.40
2009,07,29,14,26,34.40
2009,07,29,14,27,34.60
2009,07,29,14,28,34.60
2009,07,29,14,29,34.70
2009,07,29,14,30,34.80
2009,07,29,14,31,34.90
2009,07,29,14,32,34.90
2009,07,29,14,33,34.90
2009,07,29,14,34,35.10
2009,07,29,14,35,35.10
2009,07,29,14,36,34.90
2009,07,29,14,37,34.60
2009,07,29,14,38,34.30
2009,07,29,14,39,34.10
2009,07,29,14,40,33.90
2009,07,29,14,41,33.40
2009,07,29,14,42,33.00
2009,07,29,14,43,32.50
2009,07,29,14,44,32.30
2009,07,29,14,45,32.10
2009,07,29,14,46,31.90
2009,07,29,14,47,31.70
2009,07,29,14,48,31.60
2009,07,29,14,49,31.60
2009,07,29,14,50,31.60
2009,07,29,14,51,31.40
2009,07,29,14,52,31.40
2009,07,29,14,53,31.40
2009,07,29,14,54,31.40
2009,07,29,14,55,31.40
2009,07,29,14,56,31.50
2009,07,29,14,57,31.50
2009,07,29,14,58,31.60
2009,07,29,14,59,31.60
2009,07,29,15,00,31.60
2009,07,29,15,01,31.60
2009,07,29,15,02,31.60
2009,07,29,15,03,31.60
2009,07,29,15,04,31.80
2009,07,29,15,05,31.80
2009,07,29,15,06,31.70
2009,07,29,15,07,31.60
2009,07,29,15,08,31.60
2009,07,29,15,09,31.60
2009,07,29,15,10,31.70
2009,07,29,15,11,31.80
2009,07,29,15,12,31.90
2009,07,29,15,13,31.90
2009,07,29,15,14,32.10
2009,07,29,15,15,32.10
2009,07,29,15,16,32.10
2009,07,29,15,17,32.20
2009,07,29,15,18,32.30
2009,07,29,15,19,32.20
2009,07,29,15,20,32.20
2009,07,29,15,21,32.20
2009,07,29,15,22,32.20
2009,07,29,15,23,32.10
2009,07,29,15,24,32.10
2009,07,29,15,25,32.20
2009,07,29,15,26,32.30
2009,07,29,15,27,32.30
2009,07,29,15,28,32.20
2009,07,29,15,29,32.10
2009,07,29,15,30,32.10
2009,07,29,15,31,32.10
2009,07,29,15,32,32.20
2009,07,29,15,33,32.20
2009,07,29,15,34,32.20
2009,07,29,15,35,32.20
2009,07,29,15,36,32.20
2009,07,29,15,37,32.30
2009,07,29,15,38,32.20
2009,07,29,15,39,32.30
2009,07,29,15,40,32.30
2009,07,29,15,41,32.40
2009,07,29,15,42,32.50
2009,07,29,15,43,32.50
2009,07,29,15,44,32.60
2009,07,29,15,45,32.70
2009,07,29,15,46,32.80
2009,07,29,15,47,32.90
2009,07,29,15,48,33.00
2009,07,29,15,49,33.10
2009,07,29,15,50,33.10
2009,07,29,15,51,33.00
2009,07,29,15,52,33.00
2009,07,29,15,53,33.00
2009,07,29,15,54,33.00
2009,07,29,15,55,32.90
2009,07,29,15,56,32.90
2009,07,29,15,57,32.80
2009,07,29,15,58,32.80
2009,07,29,15,59,32.80
2009,07,29,16,00,32.90
2009,07,29,16,01,32.90
2009,07,29,16,02,32.80
2009,07,29,16,03,32.70
2009,07,29,16,04,32.60
2009,07,29,16,05,32.60
2009,07,29,16,06,32.60
2009,07,29,16,07,32.60
2009,07,29,16,08,32.60
2009,07,29,16,09,32.60
2009,07,29,16,10,32.60
2009,07,29,16,11,32.60
2009,07,29,16,12,32.50
2009,07,29,16,13,32.60
2009,07,29,16,14,32.60
2009,07,29,16,15,32.80
2009,07,29,16,16,32.80
2009,07,29,16,17,32.90
2009,07,29,16,18,32.90
2009,07,29,16,19,32.90
2009,07,29,16,20,32.90
2009,07,29,16,21,32.90
2009,07,29,16,22,32.90
2009,07,29,16,23,32.90
2009,07,29,16,24,32.90
2009,07,29,16,25,32.90
2009,07,29,16,26,33.00
2009,07,29,16,27,33.00
2009,07,29,16,28,33.00
2009,07,29,16,29,33.00
2009,07,29,16,30,33.00
2009,07,29,16,31,32.90
2009,07,29,16,32,32.80
2009,07,29,16,33,32.60
2009,07,29,16,34,32.50
2009,07,29,16,35,32.50
2009,07,29,16,36,32.40
2009,07,29,16,37,32.30
2009,07,29,16,38,32.30
2009,07,29,16,39,32.30
2009,07,29,16,40,32.30
2009,07,29,16,41,32.40
2009,07,29,16,42,32.50
2009,07,29,16,43,32.60
2009,07,29,16,44,32.60
2009,07,29,16,45,32.80
2009,07,29,16,46,32.80
2009,07,29,16,47,32.90
2009,07,29,16,48,32.90
2009,07,29,16,49,32.90
2009,07,29,16,50,32.80
2009,07,29,16,51,32.80
2009,07,29,16,52,32.80
2009,07,29,16,53,32.80
2009,07,29,16,54,32.60
2009,07,29,16,55,32.60
2009,07,29,16,56,32.60
2009,07,29,16,57,32.70
2009,07,29,16,58,32.80
2009,07,29,16,59,33.00
2009,07,29,17,00,33.00
2009,07,29,17,01,33.00
2009,07,29,17,02,33.10
2009,07,29,17,03,33.10
2009,07,29,17,04,33.00
2009,07,29,17,05,33.00
2009,07,29,17,06,32.80
2009,07,29,17,07,32.60
2009,07,29,17,08,32.60
2009,07,29,17,09,32.50
2009,07,29,17,10,32.50
2009,07,29,17,11,32.40
2009,07,29,17,12,32.40
2009,07,29,17,13,32.40
2009,07,29,17,14,32.40
2009,07,29,17,15,32.40
2009,07,29,17,16,32.40
2009,07,29,17,17,32.40
2009,07,29,17,18,32.40
2009,07,29,17,19,32.50